STARLINK-36440, 67447

Orbit data source: Space-Track

STARLINK-36440, 67447 is a payload satellite owned by SpaceX/Seattle (US) in LEO that was launched on Wed, 14 Jan 2026 UTC via an FALCON 9 launch vehicle from the Air Force Eastern Test Range (AFETR). Payload-class satellites include a variety of spacecraft equipped with specific instruments for various scientific and technological missions. These include communications satellites like Starlink; space stations such as the ISS; scientific satellites like the Hubble; Earth observation satellites from companies like Planet Labs, Umbra, and HawkEye 360; GPS; miniature CubeSats for education and research; and military/defense satellites.

Loading next visibility...
Identifier
67447, 2026-008C
Orbit
LEO
Country
Flag of USUS
Related business
Manufacturer
SpaceX/Seattle
Mission
Operational spacecraft
Bus & Motor
STARLINK V2MO, Unknown motor
Mass
575 kg wet, ~530 kg dry
Launch date (UTC)
2026-01-14 (2 months ago)
Launch vehicle
FALCON 9
Launch site
Air Force Eastern Test Range (AFETR)
Object type
Payload
Rocket body
Debris
Shape & HBR
Unknown shape, 17.7 m
Radar Cross Section
RCS unknown

Expand to show TLE details & history
Last TLE update: 11 hours ago

TLE from 11 hours ago
0 STARLINK-36440
1 67447U 26008C   26062.75002315  .00014253  00000-0  52679-3 0  9990
2 67447  42.9991 238.4104 0001411 280.3495 232.6973 15.27560021  6034
Epoch: 2026-03-03T18:00Z
TLE epoch observation values (Epoch: 2026-03-03T18:00:02.000Z)
Latitude
18.06566°
Longitude
-33.47968°
Altitude
482.902 km
Speed
7.627 km/s
True Right ascension
02h 32m 12s
True Declination
17° 57' 38"
Sunlit
Object was in daylight at epoch
Visualization orbit readout
Latitude
Unknown
Longitude
Unknown
Altitude
Unknown
Speed
Unknown
Apparent Right ascension
Unknown
Apparent Declination
Unknown
Sunlit
N/A
Visualization observer readout
Local Sidereal Time
08:43:33
Azimuth
Unknown
Elevation
Unknown
Doppler factor
Unknown
Orbital elements
Apogee altitude
486.023 km
Perigee altitude
484.086 km
Semi-major axis
6,863.191 km
Eccentricity
0.00014
Inclination
42.9991°
RAAN
238.4104°
Arg. of periapsis
280.3495°
True anomaly
232.68444°
Mean anomaly
232.6973°
Eccentric anomaly
232.69087°
Mean motion
3.81728 °/min
Orbital period
94.31 mins
BSTAR
0.00052679
Loading maneuver chart data...
Computing Atmospheric mass density...
Loading historical data...
Loading historical data...
Loading historical data...
Loading historical data...
Loading historical data...
Loading historical data...
Loading historical data...

Documentation

Showing up to 5 results
|